Hourly Data Report for January 10, 2017

PORT ALBERNI (AUT)
BRITISH COLUMBIA

49°18'59.700" N
124°55'36.600" W
76.20 m
1036B06
71475
WQC

Download Data

Hourly Data (January 2017)
Hourly Data Report for January 10, 2017
TIME
LST
Temp Definition
°C
Dew Point Definition
°C
Rel Hum Definition
%
Precip. Amount Definition
mm

Wind Dir Definition
10's deg

Wind Spd Definition
km/h
Visibility Definition
km
Stn Press Definition
kPa
Hmdx Definition


Wind Chill Definition


Weather Definition


00:00 -0.7 -2.4 88 0.0 8 5   99.63   -2 LegendNANA
01:00 -0.8 -2.4 89 0.0 33 2   99.64   -1 LegendNANA
02:00 -0.6 -2.3 89 0.0 0 1   99.62   -1 LegendNANA
03:00 -1.0 -2.7 88 0.0 14 1   99.65   -1 LegendNANA
04:00 -0.9 -2.5 89 0.0 2 2   99.64   -2 LegendNANA
05:00 -1.2 -2.8 89 0.0 0 1   99.64   -2 LegendNANA
06:00 -1.1 -2.7 89 0.0   0   99.61     LegendNANA
07:00 -1.0 -2.7 89 0.0 8 2   99.66   -2 LegendNANA
08:00 -0.8 -2.5 89 0.0 30 5   99.68   -2 LegendNANA
09:00 -0.8 -2.5 89 0.0 1 2   99.74   -1 LegendNANA
10:00 -0.8 -2.4 89 0.0 33 3   99.77   -2 LegendNANA
11:00 -0.9 -2.6 89 0.0 35 4   99.77   -2 LegendNANA
12:00 -0.4 -2.0 89 0.0 6 1   99.73   -1 LegendNANA
13:00 0.0 -1.7 89 0.0 19 1   99.70   0 LegendNANA
14:00 0.3 -1.4 89 0.0 35 2   99.68     LegendNANA
15:00 -0.4 -2.0 89 0.0 12 6   99.69   -2 LegendNANA
16:00 -0.4 -2.0 89 0.0 29 5   99.71   -2 LegendNANA
17:00 -1.7 -3.4 88 0.0 27 6   99.72   -4 LegendNANA
18:00 -2.5 -4.2 88 0.0 25 4   99.72   -4 LegendNANA
19:00 -3.2 -4.9 88 0.0 26 3   99.72   -4 LegendNANA
20:00 -4.4 -6.1 88 0.0 7 3   99.73   -6 LegendNANA
21:00 -5.0 -6.7 88 0.0 11 3   99.73   -6 LegendNANA
22:00 -5.3 -7.0 88 0.0 21 5   99.70   -8 LegendNANA
23:00 -6.3 -8.0 88 0.0 0 1   99.68   -7 LegendNANA

Notes on Data Quality.

Legend

  • E = Estimated
  • M = Missing
  • NA = Not Available*
  • [empty] = Indicates an unobserved value
Date modified: